Flag for United Kingdom

Past Weather in Stevenage, England, United Kingdom — Yesterday and Last 2 Weeks

Now
57 °F

Cool.


Feels Like: 56 °F
Forecast: 69 / 51 °F
Wind: 6 mph from South

Location: Luton Airport

Current Time: Jul 13, 2020 at 12:36:53 am

Latest Report: Jul 12, 2020 at 11:50 pm


Visibility: N/A

Pressure: 30.30 "Hg

Humidity: 77%

Dew Point: 50 °F

Location of StevenageLocation

Past Weather in Stevenage — Graph

°F

Stevenage Temperature Yesterday

Maximum temperature yesterday: 73 °F (at 7:20 pm)
Minimum temperature yesterday: 50 °F (at 2:20 am)
Average temperature yesterday: 62 °F

High & Low Weather Summary for the Past Weeks

 TemperatureHumidityPressure
High73 °F (Jul 12, 7:20 pm)100% (Jun 30, 11:20 pm)30.39 "Hg (Jun 30, 11:20 pm)
Low46 °F (Jul 7, 2:20 am)38% (Jul 12, 3:20 pm)29.62 "Hg (Jul 1, 4:50 am)
Average59 °F77%29.94 "Hg
* Reported Jun 27 11:20 pm — Jul 12 11:20 pm, Stevenage. Weather by CustomWeather, © 2020

Note: Actual official high and low records may vary slightly from our data, if they occured in-between our weather recording intervals... More about our weather records

Stevenage Weather History for the Previous 24 Hours

Scroll right to see more
 ConditionsComfort  
Time TempWeatherWind HumidityBarometerVisibility
11:20 pm
Sun, Jul 12
57 °FCool.6 mph72%30.30 "HgN/A
10:50 pm59 °FCool.6 mph68%30.30 "HgN/A
10:20 pm61 °FCool.1 mph63%30.30 "HgN/A
9:50 pm61 °FCool.1 mph63%30.30 "HgN/A
9:20 pm63 °FMild.2 mph59%30.30 "HgN/A
8:50 pm68 °FMild.3 mph49%30.30 "HgN/A
8:20 pm70 °FMild.3 mph43%30.30 "HgN/A
7:50 pm72 °FMild.5 mph44%30.30 "HgN/A
7:20 pm73 °FMild.2 mph38%30.30 "HgN/A
6:50 pm72 °FMild.3 mph41%30.30 "HgN/A
6:20 pm72 °FMild.3 mph38%30.33 "HgN/A
5:50 pm72 °FMild.5 mph38%30.33 "HgN/A
5:20 pm72 °FMild.6 mph41%30.33 "HgN/A
4:50 pm70 °FMild.3 mph43%30.33 "HgN/A
4:20 pm70 °FMild.6 mph43%30.33 "HgN/A
3:50 pm70 °FMild.6 mph46%30.33 "HgN/A
3:20 pm72 °FMild.3 mph38%30.36 "HgN/A
2:50 pm72 °FMild.5 mph41%30.36 "HgN/A
2:20 pm68 °FMild.6 mph46%30.36 "HgN/A
1:50 pm70 °FScattered clouds.6 mph43%30.36 "HgN/A
1:20 pm68 °FPartly sunny.3 mph46%30.36 "HgN/A
12:50 pm68 °FScattered clouds.8 mph49%30.39 "HgN/A
12:20 pm68 °FScattered clouds.6 mph49%30.39 "HgN/A
11:50 am70 °FPartly sunny.6 mph43%30.39 "HgN/A
11:20 am64 °FScattered clouds.7 mph52%30.39 "HgN/A
10:50 am66 °FPartly sunny.8 mph49%30.39 "HgN/A
10:20 am64 °FPassing clouds.5 mph56%30.39 "HgN/A
9:50 am64 °FMild.3 mph56%30.39 "HgN/A
9:20 am63 °FMild.2 mph59%30.39 "HgN/A
8:50 am61 °FCool.3 mph63%30.39 "HgN/A
8:20 am59 °FCool.5 mph63%30.39 "HgN/A
7:50 am57 °FCool.5 mph67%30.39 "HgN/A
7:20 am55 °FCool.5 mph72%30.39 "HgN/A
6:50 am54 °FCool.3 mph77%30.36 "HgN/A
6:20 am52 °FCool.5 mph77%30.36 "HgN/A
5:50 am52 °FCool.3 mph77%30.36 "HgN/A
5:20 am50 °FCool.3 mph82%30.36 "HgN/A
4:50 am50 °FCool.6 mph76%30.36 "HgN/A
4:20 am50 °FCool.5 mph76%30.36 "HgN/A
3:50 am50 °FCool.3 mph76%30.36 "HgN/A
3:20 am50 °FCool.5 mph76%30.36 "HgN/A
2:50 am50 °FCool.3 mph76%30.36 "HgN/A
2:20 am50 °FCool.5 mph82%30.36 "HgN/A
1:50 am52 °FCool.3 mph77%30.36 "HgN/A
1:20 am52 °FCool.3 mph77%30.36 "HgN/A
12:50 am54 °FCool.5 mph72%30.36 "HgN/A
12:20 am54 °FCool.3 mph72%30.36 "HgN/A
Weather by CustomWeather, © 2020

See weather overview